| time (UTC) | temp C | wind direction | speed KPH | gust KPH | rain 1hr cm | rain 24hr cm | rain mn cm | humidity % | barometer mb |
| 20260507130037 | 10 | 126 | 0.0 | 0.0 | 0.03 | 0.05 | 0.03 | 96 | 1013.1 |
| 20260507124537 | 10 | 126 | 0.0 | 0.0 | 0.03 | 0.05 | 0.03 | 96 | 1013.1 |
| 20260507123028 | 10 | 127 | 0.0 | 0.0 | 0.03 | 0.05 | 0.03 | 96 | 1013.2 |
| 20260507121527 | 10 | 126 | 0.0 | 0.0 | 0.00 | 0.03 | 0.00 | 96 | 1013.1 |
| 20260507120025 | 10 | 126 | 0.0 | 0.0 | 0.00 | 0.03 | 0.00 | 96 | 1013.1 |
| 20260507114534 | 10 | 126 | 0.0 | 0.0 | 0.00 | 0.03 | 0.00 | 96 | 1013.2 |
| 20260507113038 | 10 | 126 | 0.0 | 0.0 | 0.00 | 0.03 | 0.00 | 96 | 1013.3 |
| 20260507111525 | 10 | 319 | 0.0 | 0.0 | 0.00 | 0.03 | 0.00 | 96 | 1013.3 |
| 20260507110020 | 10 | 319 | 0.0 | 0.0 | 0.00 | 0.03 | 0.00 | 96 | 1013.4 |
| 20260507104519 | 10 | 355 | 0.0 | 0.0 | 0.00 | 0.03 | 0.00 | 96 | 1013.4 |
| 20260507103020 | 10 | 9 | 0.0 | 0.0 | 0.00 | 0.03 | 0.00 | 96 | 1013.6 |
| 20260507101518 | 10 | 5 | 0.0 | 0.0 | 0.00 | 0.03 | 0.00 | 96 | 1013.5 |
| 20260507100014 | 10 | 258 | 0.0 | 0.0 | 0.00 | 0.03 | 0.00 | 96 | 1013.6 |
| 20260507094511 | 10 | 355 | 0.0 | 0.0 | 0.00 | 0.03 | 0.00 | 96 | 1013.7 |
| 20260507093010 | 10 | 343 | 0.0 | 0.0 | 0.00 | 0.03 | 0.00 | 96 | 1013.7 |
| 20260507091509 | 10 | 328 | 0.0 | 0.0 | 0.00 | 0.03 | 0.00 | 96 | 1013.8 |
| 20260507090008 | 10 | 346 | 0.0 | 0.0 | 0.00 | 0.03 | 0.00 | 96 | 1013.9 |
| 20260507084508 | 10 | 292 | 0.0 | 0.0 | 0.00 | 0.03 | 0.00 | 95 | 1013.8 |
| 20260507083006 | 10 | 292 | 0.0 | 0.0 | 0.00 | 0.03 | 0.00 | 95 | 1013.7 |
| 20260507081507 | 10 | 9 | 0.0 | 0.0 | 0.00 | 0.03 | 0.00 | 95 | 1013.7 |
| 20260507080004 | 10 | 333 | 0.0 | 0.0 | 0.00 | 0.03 | 0.00 | 95 | 1013.8 |
| 20260507074503 | 10 | 5 | 0.0 | 0.0 | 0.00 | 0.03 | 0.00 | 95 | 1013.8 |
| 20260507073002 | 10 | 32 | 0.0 | 0.0 | 0.00 | 0.03 | 0.00 | 95 | 1013.8 |
| 20260507071500 | 10 | 32 | 0.0 | 0.0 | 0.00 | 0.03 | 0.00 | 95 | 1013.9 |
| 20260507070106 | 10 | 32 | 0.0 | 0.0 | 0.00 | 0.03 | 0.00 | 95 | 1013.8 |
| 20260507064558 | 10 | 32 | 0.0 | 0.0 | 0.00 | 0.03 | 0.03 | 95 | 1013.8 |
| 20260507063058 | 10 | 9 | 0.0 | 0.0 | 0.00 | 0.03 | 0.03 | 95 | 1013.9 |
| 20260507061558 | 10 | 10 | 0.0 | 0.0 | 0.00 | 0.03 | 0.03 | 94 | 1014.0 |
| 20260507054558 | 10 | 317 | 0.0 | 0.0 | 0.00 | 0.03 | 0.03 | 94 | 1014.3 |
| 20260507053056 | 11 | 5 | 0.0 | 0.0 | 0.00 | 0.03 | 0.03 | 94 | 1014.3 |
| 20260507051556 | 11 | 54 | 0.0 | 0.0 | 0.00 | 0.03 | 0.03 | 94 | 1014.3 |
| 20260507050055 | 11 | 83 | 0.0 | 0.0 | 0.00 | 0.03 | 0.03 | 94 | 1014.3 |
| 20260507044606 | 11 | 349 | 0.0 | 0.0 | 0.00 | 0.03 | 0.03 | 93 | 1014.5 |
| 20260507043104 | 11 | 81 | 0.0 | 0.0 | 0.00 | 0.03 | 0.03 | 93 | 1014.5 |
| 20260507041557 | 11 | 5 | 0.0 | 0.0 | 0.00 | 0.03 | 0.03 | 93 | 1014.4 |
| 20260507040053 | 11 | 46 | 0.0 | 0.0 | 0.00 | 0.03 | 0.03 | 92 | 1014.4 |
| 20260507034554 | 11 | 271 | 0.0 | 0.0 | 0.00 | 0.03 | 0.03 | 92 | 1014.3 |
| 20260507033053 | 11 | 246 | 0.0 | 0.0 | 0.00 | 0.03 | 0.03 | 91 | 1014.3 |
| 20260507031551 | 11 | 24 | 0.0 | 0.0 | 0.00 | 0.03 | 0.03 | 90 | 1014.2 |
| 20260507030051 | 12 | 163 | 0.0 | 0.0 | 0.00 | 0.03 | 0.03 | 89 | 1014.1 |
| 20260507024554 | 12 | 295 | 0.0 | 0.0 | 0.00 | 0.03 | 0.03 | 87 | 1014.1 |
| 20260507023104 | 13 | 349 | 0.0 | 0.0 | 8.41 | 0.00 | 0.03 | 85 | 1014.0 |
| 20260507021551 | 15 | 267 | 0.0 | 0.0 | 0.00 | 0.03 | 0.03 | 82 | 1013.9 |
| 20260507020149 | 16 | 355 | 0.0 | 0.0 | 0.00 | 0.03 | 0.03 | 79 | 1013.9 |
| 20260507014548 | 16 | 22 | 0.0 | 0.0 | 0.00 | 0.03 | 0.03 | 79 | 1014.0 |
| 20260507013047 | 17 | 345 | 0.0 | 3.2 | 0.00 | 0.03 | 0.03 | 75 | 1014.1 |
| 20260507011548 | 17 | 329 | 0.0 | 0.0 | 0.00 | 0.03 | 0.03 | 75 | 1014.2 |
| 20260507010046 | 17 | 333 | 0.0 | 0.0 | 0.00 | 0.03 | 0.03 | 76 | 1014.3 |
| 20260507004645 | 18 | 306 | 0.0 | 9.7 | 0.00 | 0.03 | 0.03 | 73 | 1014.3 |
| 20260507003045 | 20 | 63 | 0.0 | 0.0 | 0.00 | 0.03 | 0.03 | 71 | 1014.2 |
| 20260507001607 | 20 | 285 | 0.0 | 0.0 | 0.00 | 0.03 | 0.03 | 71 | 1014.2 |
| 20260507000044 | 20 | 238 | 0.0 | 0.0 | 0.00 | 0.03 | 0.03 | 72 | 1014.1 |
| 20260506234541 | 20 | 157 | 0.0 | 0.0 | 0.00 | 0.03 | 0.03 | 70 | 1014.2 |
| 20260506233040 | 19 | 246 | 0.0 | 0.0 | 0.00 | 0.03 | 0.03 | 73 | 1014.1 |
| 20260506231542 | 20 | 256 | 0.0 | 0.0 | 0.00 | 0.03 | 0.03 | 70 | 1014.2 |
| 20260506230051 | 21 | 134 | 0.0 | 0.0 | 0.00 | 0.03 | 0.03 | 71 | 1014.3 |
| 20260506224536 | 20 | 164 | 0.0 | 0.0 | 0.00 | 0.03 | 0.03 | 73 | 1014.4 |
| 20260506223034 | 21 | 262 | 0.0 | 0.0 | 0.00 | 0.03 | 0.03 | 71 | 1014.5 |
| 20260506221533 | 21 | 175 | 0.0 | 0.0 | 0.00 | 0.03 | 0.03 | 70 | 1014.7 |
| 20260506220035 | 21 | 240 | 0.0 | 0.0 | 0.00 | 0.03 | 0.03 | 71 | 1014.9 |
| 20260506214530 | 20 | 184 | 0.0 | 0.0 | 0.00 | 0.03 | 0.03 | 73 | 1014.8 |
| 20260506213029 | 20 | 238 | 0.0 | 12.9 | 0.00 | 0.03 | 0.03 | 74 | 1015.0 |
| 20260506211527 | 20 | 247 | 0.0 | 0.0 | 0.00 | 0.03 | 0.03 | 73 | 1015.0 |
| 20260506210045 | 21 | 299 | 0.0 | 0.0 | 0.00 | 0.03 | 0.03 | 71 | 1015.0 |
| 20260506204524 | 21 | 236 | 0.0 | 0.0 | 0.00 | 0.03 | 0.03 | 73 | 1015.0 |
| 20260506203021 | 21 | 274 | 0.0 | 0.0 | 0.00 | 0.03 | 0.03 | 73 | 1015.1 |
| 20260506201523 | 21 | 206 | 0.0 | 0.0 | 0.00 | 0.03 | 0.03 | 73 | 1015.2 |
| 20260506200018 | 20 | 270 | 0.0 | 0.0 | 0.00 | 0.03 | 0.03 | 72 | 1015.2 |
| 20260506194517 | 20 | 286 | 0.0 | 0.0 | 0.00 | 0.03 | 0.03 | 76 | 1015.3 |
| 20260506193022 | 20 | 188 | 0.0 | 1.6 | 0.00 | 0.03 | 0.03 | 75 | 1015.4 |
| 20260506191512 | 19 | 196 | 0.0 | 0.0 | 0.00 | 0.03 | 0.03 | 78 | 1015.5 |
| 20260506190011 | 18 | 258 | 0.0 | 8.0 | 0.00 | 0.03 | 0.03 | 81 | 1015.6 |
| 20260506184505 | 18 | 263 | 0.0 | 1.6 | 0.00 | 0.03 | 0.03 | 81 | 1015.7 |
| 20260506183002 | 18 | 143 | 0.0 | 0.0 | 0.00 | 0.03 | 0.03 | 82 | 1015.6 |
| 20260506181604 | 17 | 166 | 0.0 | 0.0 | 0.00 | 0.03 | 0.03 | 84 | 1015.7 |
| 20260506180056 | 16 | 223 | 0.0 | 0.0 | 0.00 | 0.03 | 0.03 | 87 | 1015.7 |
| 20260506174552 | 16 | 197 | 0.0 | 0.0 | 0.00 | 0.03 | 0.03 | 89 | 1015.6 |
| 20260506173056 | 15 | 180 | 0.0 | 0.0 | 0.00 | 0.03 | 0.03 | 92 | 1015.7 |
| 20260506171545 | 14 | 254 | 0.0 | 0.0 | 0.00 | 0.03 | 0.03 | 93 | 1015.7 |
| 20260506170047 | 13 | 186 | 0.0 | 0.0 | 0.00 | 0.03 | 0.03 | 94 | 1015.7 |
| 20260506164554 | 13 | 178 | 0.0 | 0.0 | 0.00 | 0.03 | 0.03 | 95 | 1015.9 |
| 20260506163041 | 12 | 159 | 0.0 | 0.0 | 0.00 | 0.03 | 0.03 | 95 | 1015.9 |
| 20260506161535 | 12 | 274 | 0.0 | 0.0 | 0.00 | 0.03 | 0.03 | 96 | 1015.7 |
| 20260506160036 | 12 | 251 | 0.0 | 0.0 | 0.03 | 0.03 | 0.03 | 96 | 1015.7 |
| 20260506154532 | 11 | 262 | 0.0 | 0.0 | 0.03 | 0.03 | 0.03 | 96 | 1015.7 |
| 20260506153031 | 11 | 202 | 0.0 | 0.0 | 0.03 | 0.03 | 0.03 | 96 | 1015.6 |
| 20260506151530 | 11 | 252 | 0.0 | 0.0 | 0.03 | 0.03 | 0.03 | 96 | 1015.6 |
| 20260506150028 | 11 | 5 | 0.0 | 0.0 | 0.00 | 0.00 | 0.00 | 96 | 1015.7 |
| 20260506144529 | 11 | 28 | 0.0 | 0.0 | 0.00 | 0.00 | 0.00 | 96 | 1015.7 |
| 20260506143025 | 11 | 24 | 0.0 | 0.0 | 0.00 | 0.00 | 0.00 | 96 | 1015.7 |
| 20260506141529 | 11 | 39 | 0.0 | 0.0 | 0.00 | 0.00 | 0.00 | 96 | 1015.5 |
| 20260506140022 | 11 | 39 | 0.0 | 0.0 | 0.00 | 0.00 | 0.00 | 96 | 1015.4 |
| 20260506134520 | 11 | 300 | 0.0 | 0.0 | 0.00 | 0.00 | 0.00 | 96 | 1015.3 |
| 20260506133019 | 11 | 300 | 0.0 | 0.0 | 0.00 | 0.00 | 0.00 | 95 | 1015.1 |
| 20260506131521 | 11 | 300 | 0.0 | 0.0 | 0.00 | 0.00 | 0.00 | 95 | 1015.0 |